Back to catalog

STARLINK-36670

AliveCommunicationsVLEO
NORAD 67828·PAYLOAD·🇺🇸 United States

Launched Feb 16, 2026 from Vandenberg Space Force Base

Loading…

Next Passes (next 24 hours)

TLE

FreshSource: CelesTrak SupGP

Epoch: Sep 14, 2026, 14:21 UTC

1 67828C 26033H   26257.59840278  .00028072  00000+0  10169-2 0  2574
2 67828  42.9999 280.5016 0001525 274.2876  15.8151 15.27560900    13

Track STARLINK-36670 in real time with AllMySat

Download on the App Store